Location: Croydon
(51.3762°N, 0.0982°W)
Time: 09:06:13
(UTC+00:00)

KKS-1 - Pass Details

Date: 23 October 2019
Orbit: 636 x 651 km, 98.3° (Epoch: 20 November)

Event Time Altitude Azimuth Distance (km) Brightness Sun altitude
Rises 06:25:28 0° 133° (SE) 2,958 ? -11.8°
Reaches altitude 10° 06:27:52 10° 123° (ESE) 2,050 ? -11.4°
Maximum altitude 06:31:44 29° 63° (ENE) 1,181 ? -10.8°
Drops below altitude 10° 06:35:36 10° 3° (N) 2,056 ? -10.2°
Sets 06:38:01 0° 353° (N) 2,968 ? -9.9°
